Time,TemperatureF,DewpointF,PressureIn,WindDirection,WindDirectionDegrees,WindSpeedMPH,WindSpeedGustMPH,Humidity,HourlyPrecipIn,Conditions,Clouds,dailyrainin,SoftwareType,DateUTC
2013-01-26 00:02:00,-1.0,-9.0,30.40,NNE,12,0.0,0.0,67,0.00,,,0.00,,2013-01-26 06:02:00,
2013-01-26 00:12:00,-1.0,-9.0,30.40,NNE,12,0.0,0.0,67,0.00,,,0.00,,2013-01-26 06:12:00,
2013-01-26 00:21:00,0.0,-8.0,30.40,NNE,12,0.0,0.0,68,0.00,,,0.00,,2013-01-26 06:21:00,
2013-01-26 00:31:00,-1.0,-9.0,30.41,NNE,12,0.0,0.0,67,0.00,,,0.00,,2013-01-26 06:31:00,
2013-01-26 00:41:00,-1.0,-9.0,30.41,NNE,12,0.0,0.0,67,0.00,,,0.00,,2013-01-26 06:41:00,
2013-01-26 00:52:00,-1.0,-9.0,30.40,NNE,12,0.0,0.0,67,0.00,,,0.00,,2013-01-26 06:52:00,
2013-01-26 01:01:00,-1.0,-9.0,30.40,NNE,12,0.0,0.0,67,0.00,,,0.00,,2013-01-26 07:01:00,
2013-01-26 01:12:00,-1.0,-9.0,30.40,NNE,12,0.0,0.0,67,0.00,,,0.00,,2013-01-26 07:12:00,
2013-01-26 01:21:00,-1.0,-9.0,30.40,NNE,12,0.0,0.0,67,0.00,,,0.00,,2013-01-26 07:21:00,
2013-01-26 01:33:00,-1.0,-9.0,30.39,NNE,12,0.0,2.0,67,0.00,,,0.00,,2013-01-26 07:33:00,
2013-01-26 01:41:00,-1.0,-9.0,30.39,NNE,12,0.0,2.0,67,0.00,,,0.00,,2013-01-26 07:41:00,
2013-01-26 01:52:00,-1.0,-9.0,30.38,ESE,123,0.0,1.0,67,0.00,,,0.00,,2013-01-26 07:52:00,
2013-01-26 02:02:00,0.0,-8.0,30.38,ESE,123,0.0,2.0,67,0.00,,,0.00,,2013-01-26 08:02:00,
2013-01-26 02:11:00,0.0,-8.0,30.38,ESE,123,0.0,2.0,67,0.00,,,0.00,,2013-01-26 08:11:00,
2013-01-26 02:21:00,0.0,-9.0,30.38,ESE,123,0.0,2.0,66,0.00,,,0.00,,2013-01-26 08:21:00,
2013-01-26 02:31:00,-1.0,-10.0,30.37,SE,136,1.0,3.0,66,0.00,,,0.00,,2013-01-26 08:31:00,
2013-01-26 02:42:00,-1.0,-10.0,30.37,SE,136,1.0,3.0,66,0.00,,,0.00,,2013-01-26 08:42:00,
2013-01-26 02:54:00,-1.0,-10.0,30.37,SE,134,1.0,2.0,66,0.00,,,0.00,,2013-01-26 08:54:00,
2013-01-26 03:02:00,-1.0,-10.0,30.37,SE,134,0.0,4.0,66,0.00,,,0.00,,2013-01-26 09:02:00,
2013-01-26 03:11:00,-1.0,-10.0,30.37,SE,134,0.0,4.0,66,0.00,,,0.00,,2013-01-26 09:11:00,
2013-01-26 03:22:00,-1.0,-9.0,30.37,SE,134,1.0,4.0,67,0.00,,,0.00,,2013-01-26 09:22:00,
2013-01-26 03:32:00,-1.0,-9.0,30.37,SE,136,1.0,3.0,67,0.00,,,0.00,,2013-01-26 09:32:00,
2013-01-26 03:42:00,-1.0,-9.0,30.37,SE,136,1.0,3.0,67,0.00,,,0.00,,2013-01-26 09:42:00,
2013-01-26 03:52:00,-1.0,-9.0,30.37,SE,135,1.0,3.0,67,0.00,,,0.00,,2013-01-26 09:52:00,
2013-01-26 04:01:00,-1.0,-9.0,30.36,SE,135,1.0,2.0,67,0.00,,,0.00,,2013-01-26 10:01:00,
2013-01-26 04:12:00,-1.0,-9.0,30.36,SE,135,1.0,2.0,67,0.00,,,0.00,,2013-01-26 10:12:00,
2013-01-26 04:21:00,-2.0,-10.0,30.36,SE,137,1.0,4.0,67,0.00,,,0.00,,2013-01-26 10:21:00,
2013-01-26 04:31:00,-1.0,-9.0,30.35,South,175,2.0,6.0,68,0.00,,,0.00,,2013-01-26 10:31:00,
2013-01-26 04:42:00,-1.0,-9.0,30.35,South,175,2.0,6.0,68,0.00,,,0.00,,2013-01-26 10:42:00,
2013-01-26 04:52:00,-1.0,-9.0,30.35,SE,141,2.0,5.0,67,0.00,,,0.00,,2013-01-26 10:52:00,
2013-01-26 05:01:00,-1.0,-9.0,30.34,SSE,155,2.0,6.0,67,0.00,,,0.00,,2013-01-26 11:01:00,
2013-01-26 05:12:00,-1.0,-9.0,30.34,SSE,155,2.0,6.0,67,0.00,,,0.00,,2013-01-26 11:12:00,
2013-01-26 05:22:00,-1.0,-9.0,30.34,SSE,163,2.0,7.0,67,0.00,,,0.00,,2013-01-26 11:22:00,
2013-01-26 05:32:00,-1.0,-9.0,30.33,SE,142,4.0,10.0,67,0.00,,,0.00,,2013-01-26 11:32:00,
2013-01-26 05:42:00,-1.0,-9.0,30.33,SE,142,4.0,10.0,67,0.00,,,0.00,,2013-01-26 11:42:00,
2013-01-26 05:52:00,-1.0,-9.0,30.33,ESE,119,3.0,8.0,67,0.00,,,0.00,,2013-01-26 11:52:00,
2013-01-26 06:02:00,-1.0,-9.0,30.33,SE,133,3.0,7.0,67,0.00,,,0.00,,2013-01-26 12:02:00,
2013-01-26 06:12:00,-1.0,-9.0,30.33,SE,133,3.0,7.0,67,0.00,,,0.00,,2013-01-26 12:12:00,
2013-01-26 06:22:00,-1.0,-10.0,30.33,SE,127,4.0,8.0,66,0.00,,,0.00,,2013-01-26 12:22:00,
2013-01-26 06:33:00,-1.0,-10.0,30.32,SE,142,5.0,9.0,66,0.00,,,0.00,,2013-01-26 12:33:00,
2013-01-26 06:42:00,-1.0,-10.0,30.32,SE,142,5.0,9.0,66,0.00,,,0.00,,2013-01-26 12:42:00,
2013-01-26 06:53:00,0.0,-9.0,30.33,SSE,154,4.0,9.0,66,0.00,,,0.00,,2013-01-26 12:53:00,
2013-01-26 07:03:00,0.0,-9.0,30.33,SE,132,7.0,14.0,65,0.00,,,0.00,,2013-01-26 13:03:00,
2013-01-26 07:12:00,0.0,-9.0,30.33,SE,132,7.0,14.0,65,0.00,,,0.00,,2013-01-26 13:12:00,
2013-01-26 07:22:00,0.0,-9.0,30.34,ESE,117,5.0,13.0,65,0.00,,,0.00,,2013-01-26 13:22:00,
2013-01-26 07:32:00,0.0,-9.0,30.33,SE,126,5.0,11.0,65,0.00,,,0.00,,2013-01-26 13:32:00,
2013-01-26 07:42:00,0.0,-9.0,30.33,SE,126,5.0,11.0,65,0.00,,,0.00,,2013-01-26 13:42:00,
2013-01-26 07:53:00,0.0,-9.0,30.32,ESE,115,6.0,13.0,64,0.00,,,0.00,,2013-01-26 13:53:00,
2013-01-26 08:02:00,0.0,-9.0,30.32,ESE,115,6.0,13.0,64,0.00,,,0.00,,2013-01-26 14:02:00,
2013-01-26 08:12:00,0.0,-9.0,30.32,ESE,115,6.0,13.0,64,0.00,,,0.00,,2013-01-26 14:12:00,
2013-01-26 08:22:00,1.0,-8.0,30.32,SE,124,5.0,13.0,64,0.00,,,0.00,,2013-01-26 14:22:00,
2013-01-26 08:32:00,1.0,-9.0,30.32,ESE,117,6.0,11.0,63,0.00,,,0.00,,2013-01-26 14:32:00,
2013-01-26 08:43:00,1.0,-9.0,30.32,ESE,117,6.0,11.0,63,0.00,,,0.00,,2013-01-26 14:43:00,
2013-01-26 08:53:00,1.0,-9.0,30.32,ESE,117,6.0,11.0,63,0.00,,,0.00,,2013-01-26 14:53:00,
2013-01-26 09:03:00,2.0,-8.0,30.31,SSE,149,6.0,13.0,62,0.00,,,0.00,,2013-01-26 15:03:00,
2013-01-26 09:12:00,2.0,-8.0,30.31,SSE,149,6.0,13.0,62,0.00,,,0.00,,2013-01-26 15:12:00,
2013-01-26 09:22:00,2.0,-8.0,30.30,SSE,147,7.0,14.0,62,0.00,,,0.00,,2013-01-26 15:22:00,
2013-01-26 09:32:00,2.0,-8.0,30.31,ESE,116,5.0,14.0,61,0.00,,,0.00,,2013-01-26 15:32:00,
2013-01-26 09:43:00,2.0,-8.0,30.31,ESE,116,5.0,14.0,61,0.00,,,0.00,,2013-01-26 15:43:00,
2013-01-26 09:52:00,3.0,-7.0,30.30,SE,129,6.0,15.0,61,0.00,,,0.00,,2013-01-26 15:52:00,
2013-01-26 10:02:00,3.0,-8.0,30.30,SE,134,6.0,14.0,60,0.00,,,0.00,,2013-01-26 16:02:00,
2013-01-26 10:12:00,3.0,-8.0,30.30,SE,134,6.0,14.0,60,0.00,,,0.00,,2013-01-26 16:12:00,
2013-01-26 10:22:00,4.0,-7.0,30.29,SE,135,7.0,16.0,60,0.00,,,0.00,,2013-01-26 16:22:00,
2013-01-26 10:33:00,4.0,-7.0,30.29,SE,130,8.0,14.0,59,0.00,,,0.00,,2013-01-26 16:33:00,
2013-01-26 10:42:00,4.0,-7.0,30.29,SE,130,8.0,14.0,59,0.00,,,0.00,,2013-01-26 16:42:00,
2013-01-26 10:53:00,4.0,-7.0,30.29,SE,130,8.0,14.0,59,0.00,,,0.00,,2013-01-26 16:53:00,
2013-01-26 11:03:00,5.0,-7.0,30.30,ESE,119,6.0,12.0,58,0.00,,,0.00,,2013-01-26 17:03:00,
2013-01-26 11:13:00,5.0,-7.0,30.30,ESE,119,6.0,12.0,58,0.00,,,0.00,,2013-01-26 17:13:00,
2013-01-26 11:22:00,6.0,-6.0,30.29,SE,140,9.0,15.0,58,0.00,,,0.00,,2013-01-26 17:22:00,
2013-01-26 11:33:00,6.0,-6.0,30.28,SE,136,9.0,16.0,58,0.00,,,0.00,,2013-01-26 17:33:00,
2013-01-26 11:42:00,6.0,-6.0,30.28,SE,136,9.0,16.0,58,0.00,,,0.00,,2013-01-26 17:42:00,
2013-01-26 11:52:00,8.0,-4.0,30.27,SE,130,8.0,15.0,57,0.00,,,0.00,,2013-01-26 17:52:00,
2013-01-26 12:02:00,8.0,-4.0,30.26,SE,126,8.0,14.0,57,0.00,,,0.00,,2013-01-26 18:02:00,
2013-01-26 12:12:00,8.0,-4.0,30.26,SE,126,8.0,14.0,57,0.00,,,0.00,,2013-01-26 18:12:00,
2013-01-26 12:22:00,8.0,-4.0,30.24,ESE,121,9.0,15.0,57,0.00,,,0.00,,2013-01-26 18:22:00,
2013-01-26 12:33:00,8.0,-4.0,30.25,ESE,115,6.0,16.0,57,0.00,,,0.00,,2013-01-26 18:33:00,
2013-01-26 12:42:00,8.0,-4.0,30.25,ESE,115,6.0,16.0,57,0.00,,,0.00,,2013-01-26 18:42:00,
2013-01-26 12:52:00,8.0,-4.0,30.24,SE,132,8.0,14.0,57,0.00,,,0.00,,2013-01-26 18:52:00,
2013-01-26 13:03:00,9.0,-3.0,30.22,SE,124,11.0,17.0,57,0.00,,,0.00,,2013-01-26 19:03:00,
2013-01-26 13:12:00,9.0,-3.0,30.22,SE,124,11.0,17.0,57,0.00,,,0.00,,2013-01-26 19:12:00,
2013-01-26 13:22:00,9.0,-3.0,30.22,SE,135,9.0,17.0,57,0.00,,,0.00,,2013-01-26 19:22:00,
2013-01-26 13:32:00,10.0,-2.0,30.22,SE,146,8.0,17.0,57,0.00,,,0.00,,2013-01-26 19:32:00,
2013-01-26 13:42:00,10.0,-2.0,30.22,SE,146,8.0,17.0,57,0.00,,,0.00,,2013-01-26 19:42:00,
2013-01-26 13:52:00,11.0,-1.0,30.21,SSE,155,9.0,15.0,58,0.00,,,0.00,,2013-01-26 19:52:00,
2013-01-26 14:02:00,12.0,0.0,30.21,SE,125,8.0,14.0,57,0.00,,,0.00,,2013-01-26 20:02:00,
2013-01-26 14:11:00,12.0,0.0,30.21,SE,125,8.0,14.0,57,0.00,,,0.00,,2013-01-26 20:11:00,
2013-01-26 14:21:00,12.0,0.0,30.20,SE,139,9.0,18.0,57,0.00,,,0.00,,2013-01-26 20:21:00,
2013-01-26 14:32:00,13.0,0.0,30.19,SSE,150,8.0,17.0,55,0.00,,,0.00,,2013-01-26 20:32:00,
2013-01-26 14:42:00,13.0,0.0,30.19,SSE,150,8.0,17.0,55,0.00,,,0.00,,2013-01-26 20:42:00,
2013-01-26 14:52:00,13.0,1.0,30.18,SE,140,7.0,17.0,57,0.00,,,0.00,,2013-01-26 20:52:00,
2013-01-26 15:02:00,14.0,1.0,30.18,ESE,114,6.0,16.0,56,0.00,,,0.00,,2013-01-26 21:02:00,
2013-01-26 15:12:00,14.0,1.0,30.18,ESE,114,6.0,16.0,56,0.00,,,0.00,,2013-01-26 21:12:00,
2013-01-26 15:22:00,14.0,1.0,30.18,ESE,114,6.0,16.0,56,0.00,,,0.00,,2013-01-26 21:22:00,
2013-01-26 15:32:00,15.0,2.0,30.17,SE,128,9.0,14.0,56,0.00,,,0.00,,2013-01-26 21:32:00,
2013-01-26 15:43:00,15.0,2.0,30.17,SE,128,9.0,14.0,56,0.00,,,0.00,,2013-01-26 21:43:00,
2013-01-26 15:52:00,15.0,3.0,30.17,ESE,121,9.0,18.0,57,0.00,,,0.00,,2013-01-26 21:52:00,
2013-01-26 16:01:00,16.0,3.0,30.16,ESE,105,10.0,18.0,56,0.00,,,0.00,,2013-01-26 22:01:00,
2013-01-26 16:11:00,16.0,3.0,30.16,ESE,105,10.0,18.0,56,0.00,,,0.00,,2013-01-26 22:11:00,
2013-01-26 16:22:00,16.0,3.0,30.16,East,101,9.0,16.0,57,0.00,,,0.00,,2013-01-26 22:22:00,
2013-01-26 16:32:00,16.0,3.0,30.15,SE,136,8.0,19.0,57,0.00,,,0.00,,2013-01-26 22:32:00,
2013-01-26 16:42:00,16.0,3.0,30.15,SE,136,8.0,19.0,57,0.00,,,0.00,,2013-01-26 22:42:00,
2013-01-26 16:52:00,16.0,4.0,30.16,ESE,114,10.0,15.0,58,0.00,,,0.00,,2013-01-26 22:52:00,
2013-01-26 17:01:00,16.0,4.0,30.15,SE,126,6.0,14.0,59,0.00,,,0.00,,2013-01-26 23:01:00,
2013-01-26 17:12:00,16.0,4.0,30.15,SE,126,6.0,14.0,59,0.00,,,0.00,,2013-01-26 23:12:00,
2013-01-26 17:22:00,16.0,5.0,30.15,SSE,148,8.0,14.0,60,0.00,,,0.00,,2013-01-26 23:22:00,
2013-01-26 17:32:00,15.0,4.0,30.15,ESE,121,5.0,10.0,61,0.00,,,0.00,,2013-01-26 23:32:00,
2013-01-26 17:42:00,15.0,4.0,30.15,ESE,121,5.0,10.0,61,0.00,,,0.00,,2013-01-26 23:42:00,
2013-01-26 17:52:00,15.0,5.0,30.13,ESE,110,3.0,10.0,63,0.00,,,0.00,,2013-01-26 23:52:00,
2013-01-26 18:02:00,15.0,5.0,30.12,SE,132,8.0,13.0,64,0.00,,,0.00,,2013-01-27 00:02:00,
2013-01-26 18:11:00,15.0,5.0,30.12,SE,132,8.0,13.0,64,0.00,,,0.00,,2013-01-27 00:11:00,
2013-01-26 18:21:00,15.0,5.0,30.12,SE,146,7.0,13.0,65,0.00,,,0.00,,2013-01-27 00:21:00,
2013-01-26 18:32:00,15.0,5.0,30.12,SSE,163,7.0,11.0,65,0.00,,,0.00,,2013-01-27 00:32:00,
2013-01-26 18:42:00,15.0,5.0,30.12,SSE,163,7.0,11.0,65,0.00,,,0.00,,2013-01-27 00:42:00,
2013-01-26 18:51:00,15.0,6.0,30.13,SE,132,5.0,10.0,66,0.00,,,0.00,,2013-01-27 00:51:00,
2013-01-26 19:01:00,15.0,6.0,30.12,SE,145,4.0,10.0,66,0.00,,,0.00,,2013-01-27 01:01:00,
2013-01-26 19:11:00,15.0,6.0,30.12,SE,145,4.0,10.0,66,0.00,,,0.00,,2013-01-27 01:11:00,
2013-01-26 19:22:00,15.0,5.0,30.13,SE,142,2.0,7.0,65,0.00,,,0.00,,2013-01-27 01:22:00,
2013-01-26 19:32:00,14.0,5.0,30.13,SE,144,2.0,6.0,66,0.00,,,0.00,,2013-01-27 01:32:00,
2013-01-26 19:42:00,14.0,5.0,30.13,SE,144,2.0,6.0,66,0.00,,,0.00,,2013-01-27 01:42:00,
2013-01-26 19:52:00,14.0,5.0,30.14,SSE,153,0.0,3.0,66,0.00,,,0.00,,2013-01-27 01:52:00,
2013-01-26 20:01:00,14.0,5.0,30.14,South,173,2.0,5.0,67,0.00,,,0.00,,2013-01-27 02:01:00,
2013-01-26 20:12:00,14.0,5.0,30.14,South,173,2.0,5.0,67,0.00,,,0.00,,2013-01-27 02:12:00,
2013-01-26 20:22:00,14.0,5.0,30.13,SE,138,3.0,7.0,67,0.00,,,0.00,,2013-01-27 02:22:00,
2013-01-26 20:32:00,14.0,5.0,30.12,ESE,112,0.0,7.0,66,0.00,,,0.00,,2013-01-27 02:32:00,
2013-01-26 20:42:00,14.0,5.0,30.12,ESE,112,0.0,7.0,66,0.00,,,0.00,,2013-01-27 02:42:00,
2013-01-26 20:52:00,14.0,5.0,30.12,SE,142,0.0,4.0,66,0.00,,,0.00,,2013-01-27 02:52:00,
2013-01-26 21:02:00,14.0,5.0,30.12,SE,142,0.0,4.0,66,0.00,,,0.00,,2013-01-27 03:02:00,
2013-01-26 21:11:00,14.0,5.0,30.12,SE,142,0.0,4.0,66,0.00,,,0.00,,2013-01-27 03:11:00,
2013-01-26 21:21:00,14.0,5.0,30.11,SE,145,0.0,3.0,67,0.00,,,0.00,,2013-01-27 03:21:00,
2013-01-26 21:32:00,13.0,4.0,30.11,SSE,150,0.0,1.0,67,0.00,,,0.00,,2013-01-27 03:32:00,
2013-01-26 21:42:00,13.0,4.0,30.11,SSE,150,0.0,1.0,67,0.00,,,0.00,,2013-01-27 03:42:00,
2013-01-26 21:51:00,13.0,4.0,30.10,SSE,150,0.0,1.0,68,0.00,,,0.00,,2013-01-27 03:51:00,
2013-01-26 22:02:00,13.0,4.0,30.10,SSE,150,0.0,2.0,68,0.00,,,0.00,,2013-01-27 04:02:00,
2013-01-26 22:11:00,13.0,4.0,30.10,SSE,150,0.0,2.0,68,0.00,,,0.00,,2013-01-27 04:11:00,
2013-01-26 22:21:00,13.0,5.0,30.10,South,190,1.0,3.0,69,0.00,,,0.00,,2013-01-27 04:21:00,
2013-01-26 22:32:00,13.0,4.0,30.10,South,174,0.0,3.0,68,0.00,,,0.00,,2013-01-27 04:32:00,
2013-01-26 22:41:00,13.0,4.0,30.10,South,174,0.0,3.0,68,0.00,,,0.00,,2013-01-27 04:41:00,
2013-01-26 22:51:00,13.0,4.0,30.09,SSE,150,0.0,2.0,68,0.00,,,0.00,,2013-01-27 04:51:00,
2013-01-26 23:03:00,13.0,4.0,30.09,SE,138,0.0,3.0,66,0.00,,,0.00,,2013-01-27 05:03:00,
2013-01-26 23:12:00,13.0,4.0,30.09,SE,138,0.0,3.0,66,0.00,,,0.00,,2013-01-27 05:12:00,
2013-01-26 23:22:00,11.0,3.0,30.09,SE,138,0.0,2.0,69,0.00,,,0.00,,2013-01-27 05:22:00,
2013-01-26 23:32:00,11.0,3.0,30.08,SE,138,0.0,0.0,69,0.00,,,0.00,,2013-01-27 05:32:00,
2013-01-26 23:41:00,11.0,3.0,30.08,SE,138,0.0,0.0,69,0.00,,,0.00,,2013-01-27 05:41:00,
2013-01-26 23:52:00,11.0,3.0,30.09,SE,138,0.0,0.0,70,0.00,,,0.00,,2013-01-27 05:52:00,